Terminal Aerodrome Forecast
Issued by NWS

Home | Current Version | Previous Version | Text Only | Print | Product List | Glossary On
Versions: 1 2 3 4 5 6 7 8 9 10 11 12 13 14 15 16 17
000
FTAK31 PAJN 210500
TAFASI
TAF
PASI 210520Z 2106/2206 10008KT P6SM BKN080
     FM211200 11010KT P6SM FEW030 OVC080
     FM211500 12011G18KT P6SM -RA SCT020 OVC040 WS020/14030KT
     FM211900 14013G21KT 6SM -RA BR OVC035 WS020/16040KT
     FM212100 14020G35KT 6SM -RA BR SCT012 OVC025 WS020/16050KT=

USA.gov is the U.S. government's official web portal to all federal, state and local government web resources and services.